sat.trackr.live / text

‹ back to catalog

STARLINK-5006

NORAD 55422 · 2023-014AH

PAYLOAD ACTIVE UNKNOWN

§ Identity

Operator
Country
US
Launch date
2023-01-31
Launch site
AFWTR
Launch vehicle
Mass (kg)
RCS (m²)

Purposes: comms

External: N2YO · Heavens-Above · Gunter

§ Orbital elements

Epoch: 2026-05-24T17:10:32.401056Z

Period
96.11 min
Inclination
69.9991°
Eccentricity
0.0003545
Mean motion
14.98332061 rev/d
Perigee alt
569.6 km
Apogee alt
574.5 km
Semi-major
6,950.2 km
B*
1.2226e-5
RAAN
252.6184°
Arg perigee
269.1271°
Mean anomaly
90.9482°
Rev number
18,295

§ Raw data

STARLINK-50061 55422U 23014AH  26144.71565279  .00000053  00000+0  12226-4 0  99912 55422  69.9991 252.6184 0003545 269.1271  90.9482 14.98332061182950

JSON: /api/v1/satellites/55422 · /tle

For live sub-satellite position, see the globe view (requires WebGL).

§ Visibility from observer

Set your observer location to see the next 7 days of passes ≥ 10°. The values pass through the URL so the page stays shareable.

No JS? Fill the form by hand. The geolocation button needs JavaScript.